OE3FJB-25 Weather Reports


Display with metric or nautical units.
time (UTC)temp
F
wind
direction
speed
MPH
gust
MPH
rain 1hr
in
rain 24hr
in
rain mn
in
humidity
%
barometer
mb
20260905230554 55 0.0 0.0 0.00 0.00 0.00 63 1027.9
20260905225556 55 0.0 0.0 0.00 0.00 0.00 63 1027.8
20260905224557 56 0.0 0.0 0.00 0.00 0.00 64 1027.9
20260905223558 56 0.0 0.0 0.00 0.00 0.00 64 1027.8
20260905222600 56 0.0 0.0 0.00 0.00 0.00 64 1027.8
20260905221601 56 0.0 0.0 0.00 0.00 0.00 65 1027.7
20260905220602 56 0.0 0.0 0.00 0.00 0.00 65 1027.7
20260905215604 56 0.0 0.0 0.00 0.00 0.00 64 1027.6
20260905214605 57 0.0 0.0 0.00 0.00 0.00 64 1027.5
20260905213606 57 0.0 0.0 0.00 0.00 0.00 64 1027.5
20260905212608 57 0.0 0.0 0.00 0.00 0.00 63 1027.4
20260905211609 58 0.0 0.0 0.00 0.00 0.00 63 1027.3
20260905210610 58 0.0 0.0 0.00 0.00 0.00 62 1027.1
20260905205612 59 0.0 0.0 0.00 0.00 0.00 62 1027.0
20260905204613 59 0.0 0.0 0.00 0.00 0.00 63 1026.9
20260905203614 59 0.0 0.0 0.00 0.00 0.00 64 1026.9
20260905202616 59 0.0 0.0 0.00 0.00 0.00 64 1026.8
20260905201617 59 0.0 0.0 0.00 0.00 0.00 64 1026.6
20260905200619 59 0.0 0.0 0.00 0.00 0.00 64 1026.6
20260905195620 59 0.0 0.0 0.00 0.00 0.00 65 1026.5
20260905194621 59 0.0 0.0 0.00 0.00 0.00 64 1026.5
20260905193623 60 0.0 0.0 0.00 0.00 0.00 64 1026.5
20260905192624 60 0.0 0.0 0.00 0.00 0.00 64 1026.4
20260905191625 60 0.0 0.0 0.00 0.00 0.00 64 1026.3
20260905190627 60 0.0 0.0 0.00 0.00 0.00 64 1026.2
20260905185628 60 0.0 0.0 0.00 0.00 0.00 63 1026.2
20260905184629 60 0.0 0.0 0.00 0.00 0.00 63 1026.1
20260905183631 60 0.0 0.0 0.00 0.00 0.00 62 1026.0
20260905182632 60 0.0 0.0 0.00 0.00 0.00 62 1025.9
20260905181633 61 0.0 0.0 0.00 0.00 0.00 61 1025.8
20260905180635 61 0.0 0.0 0.00 0.00 0.00 60 1025.7
20260905175636 61 0.0 0.0 0.00 0.00 0.00 59 1025.6
20260905174638 62 0.0 0.0 0.00 0.00 0.00 58 1025.3
20260905173639 62 0.0 0.0 0.00 0.00 0.00 57 1025.2
20260905172640 62 0.0 0.0 0.00 0.00 0.00 57 1025.1
20260905171642 62 0.0 0.0 0.00 0.00 0.00 56 1025.0
20260905170643 63 0.0 0.0 0.00 0.00 0.00 56 1025.0
20260905165644 63 0.0 0.0 0.00 0.00 0.00 55 1024.9
20260905164643 63 0.0 0.0 0.00 0.00 0.00 54 1024.7
20260905163645 64 0.0 0.0 0.00 0.00 0.00 53 1024.8
20260905162646 64 0.0 0.0 0.00 0.00 0.00 52 1024.9
20260905161647 64 0.0 0.0 0.00 0.00 0.00 52 1024.7
20260905160649 65 0.0 0.0 0.00 0.00 0.00 52 1024.7
20260905155648 65 0.0 0.0 0.00 0.00 0.00 51 1024.6
20260905154650 65 0.0 0.0 0.00 0.00 0.00 51 1024.4
20260905153651 66 0.0 0.0 0.00 0.00 0.00 51 1024.6
20260905152653 66 0.0 0.0 0.00 0.00 0.00 51 1024.5
20260905151654 67 0.0 0.0 0.00 0.00 0.00 50 1024.5
20260905150655 68 0.0 0.0 0.00 0.00 0.00 50 1024.4
20260905145657 68 0.0 0.0 0.00 0.00 0.00 50 1024.6
20260905144658 68 0.0 0.0 0.00 0.00 0.00 50 1024.5
20260905143700 68 0.0 0.0 0.00 0.00 0.00 51 1024.6
20260905142701 67 0.0 0.0 0.00 0.00 0.00 51 1024.6
20260905141701 68 0.0 0.0 0.00 0.00 0.00 50 1024.7
20260905140703 69 0.0 0.0 0.00 0.00 0.00 50 1024.6
20260905135704 70 0.0 0.0 0.00 0.00 0.00 50 1024.6
20260905134705 69 0.0 0.0 0.00 0.00 0.00 51 1024.6
20260905133707 69 0.0 0.0 0.00 0.00 0.00 52 1024.4
20260905132708 69 0.0 0.0 0.00 0.00 0.00 53 1024.7
20260905131710 68 0.0 0.0 0.00 0.00 0.00 54 1024.6
20260905130711 68 0.0 0.0 0.00 0.00 0.00 55 1024.8
20260905125712 68 0.0 0.0 0.00 0.00 0.00 55 1024.9
20260905124713 67 0.0 0.0 0.00 0.00 0.00 57 1024.8
20260905123715 66 0.0 0.0 0.00 0.00 0.00 58 1025.0
20260905122716 66 0.0 0.0 0.00 0.00 0.00 58 1025.0
20260905121718 65 0.0 0.0 0.00 0.00 0.00 59 1024.9
20260905120719 67 0.0 0.0 0.00 0.00 0.00 57 1024.9
20260905115720 67 0.0 0.0 0.00 0.00 0.00 57 1025.0
20260905114722 68 0.0 0.0 0.00 0.00 0.00 57 1024.7
20260905113723 68 0.0 0.0 0.00 0.00 0.00 58 1025.0
20260905112725 68 0.0 0.0 0.00 0.00 0.00 58 1024.8
20260905111726 69 0.0 0.0 0.00 0.00 0.00 58 1024.6
20260905110727 68 0.0 0.0 0.00 0.00 0.00 60 1024.7
20260905105729 68 0.0 0.0 0.00 0.00 0.00 62 1024.7
20260905104730 68 0.0 0.0 0.00 0.00 0.00 63 1024.8
20260905103732 67 0.0 0.0 0.00 0.00 0.00 65 1024.8
20260905102733 67 0.0 0.0 0.00 0.00 0.00 66 1024.9
20260905101734 68 0.0 0.0 0.00 0.00 0.00 68 1024.8
20260905100736 67 0.0 0.0 0.00 0.00 0.00 71 1024.8
20260905095737 65 0.0 0.0 0.00 0.00 0.00 74 1024.8
20260905094738 66 0.0 0.0 0.00 0.00 0.00 77 1024.9
20260905093740 65 0.0 0.0 0.00 0.00 0.00 80 1024.7
20260905092741 63 0.0 0.0 0.00 0.00 0.00 85 1024.7
20260905091743 62 0.0 0.0 0.00 0.00 0.00 89 1024.7
20260905090744 61 0.0 0.0 0.00 0.00 0.00 91 1024.7
20260905085745 60 0.0 0.0 0.00 0.00 0.00 93 1024.6
20260905084747 58 0.0 0.0 0.00 0.00 0.00 96 1024.5
20260905083748 57 0.0 0.0 0.00 0.00 0.00 96 1024.4
20260905082750 56 0.0 0.0 0.00 0.00 0.00 96 1024.4
20260905081751 56 0.0 0.0 0.00 0.00 0.00 97 1024.3
20260905080752 55 0.0 0.0 0.00 0.00 0.00 97 1024.1
20260905075754 55 0.0 0.0 0.00 0.00 0.00 97 1024.1
20260905074755 54 0.0 0.0 0.00 0.00 0.00 97 1024.1
20260905073756 54 0.0 0.0 0.00 0.00 0.00 97 1023.9
20260905072758 53 0.0 0.0 0.00 0.00 0.00 96 1023.9
20260905071759 53 0.0 0.0 0.00 0.00 0.00 96 1023.8
20260905070800 53 0.0 0.0 0.00 0.00 0.00 96 1023.6
20260905065802 53 0.0 0.0 0.00 0.00 0.00 95 1023.6
20260905064803 53 0.0 0.0 0.00 0.00 0.00 95 1023.3
20260905063804 53 0.0 0.0 0.00 0.00 0.00 94 1023.4
20260905062806 53 0.0 0.0 0.00 0.00 0.00 94 1023.8
20260905061807 53 0.0 0.0 0.00 0.00 0.00 93 1023.8
20260905060808 54 0.0 0.0 0.00 0.00 0.00 92 1023.8
20260905055810 54 0.0 0.0 0.00 0.00 0.00 92 1023.5
20260905054808 54 0.0 0.0 0.00 0.00 0.00 91 1023.6
20260905053809 54 0.0 0.0 0.00 0.00 0.00 90 1024.0
20260905052811 54 0.0 0.0 0.00 0.00 0.00 88 1024.2
20260905051812 55 0.0 0.0 0.00 0.00 0.00 88 1023.6
20260905050813 55 0.0 0.0 0.00 0.00 0.00 86 1023.5
20260905045815 55 0.0 0.0 0.00 0.00 0.00 85 1023.4
20260905044816 55 0.0 0.0 0.00 0.00 0.00 83 1023.1
20260905043817 55 0.0 0.0 0.00 0.00 0.00 81 1023.2
20260905042819 55 0.0 0.0 0.00 0.00 0.00 78 1022.7
20260905041820 56 0.0 0.0 0.00 0.00 0.00 73 1022.5
20260905040821 58 0.0 0.0 0.00 0.00 0.00 69 1022.3
20260905035822 59 0.0 0.0 0.00 0.00 0.00 67 1022.5
20260905034824 59 0.0 0.0 0.00 0.00 0.00 66 1022.0
20260905033825 60 0.0 0.0 0.00 0.00 0.00 65 1022.1
20260905032827 60 0.0 0.0 0.00 0.00 0.00 65 1022.2
20260905031828 60 0.0 0.0 0.00 0.00 0.00 65 1021.7
20260905030826 60 0.0 0.0 0.00 0.00 0.00 65 1021.6
20260905025828 60 0.0 0.0 0.00 0.00 0.00 66 1021.6
20260905024829 60 0.0 0.0 0.00 0.00 0.00 66 1021.7
20260905023830 60 0.0 0.0 0.00 0.00 0.00 66 1021.7
20260905022832 61 0.0 0.0 0.00 0.00 0.00 65 1021.6
20260905021833 61 0.0 0.0 0.00 0.00 0.00 65 1021.5
20260905020835 62 0.0 0.0 0.00 0.00 0.00 64 1021.3
20260905015836 63 0.0 0.0 0.00 0.00 0.00 61 1021.3
20260905014838 67 0.0 0.0 0.00 0.00 0.00 57 1020.5
20260905013839 70 0.0 0.0 0.00 0.00 0.00 53 1020.1
20260905012840 71 0.0 0.0 0.00 0.00 0.00 53 1019.6
20260905011842 71 0.0 0.0 0.00 0.00 0.00 52 1019.7
20260905010843 71 0.0 0.0 0.00 0.00 0.00 52 1019.7
20260905005845 71 0.0 0.0 0.00 0.00 0.00 52 1019.7
20260905004846 71 0.0 0.0 0.00 0.00 0.00 51 1019.7
20260905003847 71 0.0 0.0 0.00 0.00 0.00 51 1019.6
20260905002849 71 0.0 0.0 0.00 0.00 0.00 51 1019.5
20260905001850 71 0.0 0.0 0.00 0.00 0.00 50 1019.4
20260905000852 71 0.0 0.0 0.00 0.00 0.00 50 1019.2
20260904235853 71 0.0 0.0 0.00 0.00 0.00 50 1019.1
20260904234854 71 0.0 0.0 0.00 0.00 0.00 50 1019.1
20260904233856 71 0.0 0.0 0.00 0.00 0.00 49 1019.2
20260904232857 72 0.0 0.0 0.00 0.00 0.00 49 1019.1
20260904231859 72 0.0 0.0 0.00 0.00 0.00 49 1019.1